Notices

What's New in latest Release from April 7th, 2021:

- Updated Glossary, including Speed of Maximum Gust, and Total Hourly Precipitation

- Updated national and regional climate services offices contacts and prices information

- Addition of station inventory lists for 1981-2010, 1971-2000, and 1961-1990 Normals.

If you haven't already, please take our survey and provide feedback about our website: https://eccc.sondage-survey.ca/f/LanguageSelection.aspx?s=442ca660-fcf1-47c0-95a9-59707d6fd709

Hourly Data Report for January 18, 2021

CARBERRY CS
MANITOBA
Current Station Operator: ECCC - MSC

49°54'20.900" N
99°21'26.800" W
383.50 m
5010547
71170
WZE

Download Data

Hourly Data (January 2021)
Hourly Data Report for January 18, 2021
TIME
LST
Temp Definition
°C
Dew Point Definition
°C
Rel Hum Definition
%
Precip. Amount Definition
mm

Wind Dir Definition
10's deg

Wind Spd Definition
km/h
Visibility Definition
km
Stn Press Definition
kPa
Hmdx Definition


Wind Chill Definition


Weather Definition


00:00 -12.9 -14.9 85 0.0 5 9   96.66   -18 LegendNANA
01:00 -13.3 -15.4 84 0.2 4 9   96.71   -19 LegendNANA
02:00 -13.5 -15.8 83 0.2 4 11   96.71   -20 LegendNANA
03:00 -13.8 -16.3 82 0.0 4 15   96.78   -21 LegendNANA
04:00 -14.3 -16.7 82 0.0 5 14   96.81   -22 LegendNANA
05:00 -14.7 -17.0 83 0.0 5 13   96.85   -22 LegendNANA
06:00 -15.8 -18.3 81 0.0 4 15   96.92   -24 LegendNANA
07:00 -16.9 -19.4 81 0.0 3 18   97.00   -26 LegendNANA
08:00 -18.3 -20.2 85 0.0 3 12   97.01   -26 LegendNANA
09:00 -18.7 -20.7 85 0.0 3 11   97.11   -26 LegendNANA
10:00 -18.9 -21.0 84 0.0 3 12   97.18   -27 LegendNANA
11:00 -18.8 -21.4 80 0.2 1 7   97.21   -24 LegendNANA
12:00 -18.5 -21.3 79 0.0 36 5   97.24   -23 LegendNANA
13:00 -18.4 -21.6 76 0.0 36 5   97.20   -22 LegendNANA
14:00 -17.6 -21.5 72 0.0 28 5   97.25   -22 LegendNANA
15:00 -16.7 -20.4 73 0.0 21 3   97.22   -19 LegendNANA
16:00 -16.1 -19.8 73 0.0 6 2   97.20   -18 LegendNANA
17:00 -15.6 -19.1 74 0.0 17 3   97.20   -18 LegendNANA
18:00 -15.1 -18.3 76 0.0 15 7   97.18   -20 LegendNANA
19:00 -14.8 -17.5 80 0.0 20 7   97.16   -20 LegendNANA
20:00 -15.3 -17.5 83 0.0 14 5   97.16   -19 LegendNANA
21:00 -15.2 -17.3 84 0.0 10 4   97.15   -18 LegendNANA
22:00 -14.9 -17.0 84 0.0 10 5   97.14   -18 LegendNANA
23:00 -15.1 -17.3 84 0.0 6 9   97.21   -21 LegendNANA

Notes on Data Quality.

Legend

  • E = Estimated
  • M = Missing
  • NA = Not Available*
  • [empty] = Indicates an unobserved value
Date modified: